Location: Lombard
(41.8800°N, 88.0080°W)
Time: 05:00:23
(UTC-05:00)

Vanguard 2 Rocket - Pass Details

Date: 23 February 2024
Orbit: 555 x 3307 km, 32.9° (Epoch: 12 April)

Event Time Altitude Azimuth Distance (km) Brightness Sun altitude
Rises 18:11:09 0° 270° (W) 5,551 13.3 -7.5°
Reaches altitude 10° 18:14:22 10° 266° (W) 4,858 12.4 -8.1°
Maximum altitude 18:29:02 57° 194° (SSW) 3,410 9.9 -10.9°
Drops below altitude 10° 18:48:26 10° 123° (ESE) 6,222 10.6 -14.5°
Enters shadow 18:50:19 - 121° (ESE) 6,580 10.8 -14.8°
Sets 18:53:14 0° 119° (ESE) 7,135 - -15.4°
